FW2736 Weather Reports


Display with metric or nautical units.
time (UTC)temp
F
wind
direction
speed
MPH
gust
MPH
rain 1hr
in
rain 24hr
in
rain mn
in
humidity
%
barometer
mb
20260505191738 63 32 3.0 0.0 0.00 0.03 0.03 61 1016.6
20260505191236 62 141 4.0 0.0 0.00 0.03 0.03 64 1016.6
20260505190742 61 342 4.0 0.0 0.00 0.03 0.03 64 1016.6
20260505190248 61 43 4.0 0.0 0.00 0.03 0.03 64 1016.6
20260505185737 61 299 6.0 0.0 0.00 0.03 0.03 65 1016.6
20260505185242 61 170 6.0 0.0 0.00 0.03 0.03 65 1016.6
20260505184740 61 306 0.0 0.0 0.00 0.03 0.03 62 1016.9
20260505184241 61 35 3.0 0.0 0.00 0.03 0.03 60 1016.9
20260505183738 61 194 3.0 0.0 0.00 0.03 0.03 60 1016.9
20260505183239 61 9 1.0 0.0 0.00 0.03 0.03 62 1016.9
20260505182738 60 37 0.0 0.0 0.00 0.03 0.03 64 1016.9
20260505182241 59 53 0.0 0.0 0.00 0.03 0.03 64 1016.9
20260505181742 58 292 0.0 0.0 0.00 0.03 0.03 65 1016.9
20260505181242 58 294 0.0 0.0 0.00 0.03 0.03 66 1016.9
20260505180739 58 337 0.0 0.0 0.00 0.03 0.03 66 1016.9
20260505180239 58 289 0.0 0.0 0.00 0.03 0.03 67 1016.9
20260505175740 58 287 3.0 0.0 0.00 0.03 0.03 68 1016.9
20260505175238 58 241 4.0 0.0 0.00 0.03 0.03 68 1016.6
20260505174737 58 307 6.0 0.0 0.00 0.03 0.03 67 1016.6
20260505174236 59 300 6.0 0.0 0.00 0.03 0.03 67 1016.6
20260505173812 59 305 6.0 0.0 0.00 0.03 0.03 65 1016.6
20260505173513 59 280 6.0 0.0 0.00 0.03 0.03 66 1016.3
20260505172739 59 321 6.0 0.0 0.00 0.03 0.03 67 1016.3
20260505172236 59 327 7.0 0.0 0.00 0.03 0.03 66 1016.3
20260505171734 59 66 3.0 0.0 0.00 0.03 0.03 65 1016.3
20260505171234 60 12 3.0 0.0 0.00 0.03 0.03 72 1016.3
20260505170742 59 275 0.0 0.0 0.00 0.03 0.03 72 1016.3
20260505170241 58 77 6.0 0.0 0.00 0.03 0.03 71 1016.3
20260505165734 57 347 7.0 0.0 0.00 0.03 0.03 72 1016.3
20260505165235 57 92 6.0 0.0 0.00 0.03 0.03 73 1016.3
20260505164734 58 298 0.0 0.0 0.00 0.03 0.03 74 1016.3
20260505164234 57 296 0.0 0.0 0.00 0.03 0.03 74 1016.3
20260505163734 57 279 5.0 0.0 0.00 0.03 0.03 76 1016.3
20260505163334 57 352 8.0 0.0 0.00 0.03 0.03 78 1016.3
20260505162745 57 345 8.0 0.0 0.00 0.03 0.03 79 1015.9
20260505162234 56 320 7.0 0.0 0.00 0.03 0.03 79 1015.9
20260505161735 56 333 5.0 0.0 0.00 0.03 0.03 79 1015.9
20260505161332 56 254 7.0 0.0 0.00 0.03 0.03 79 1015.9
20260505160733 56 314 9.0 0.0 0.00 0.03 0.03 79 1015.6
20260505160232 56 331 9.0 0.0 0.00 0.03 0.03 78 1015.6
20260505153238 56 150 6.0 0.0 0.01 0.03 0.03 88 1015.6
20260505152742 56 332 5.0 0.0 0.01 0.03 0.03 90 1015.6
20260505152241 56 329 5.0 0.0 0.01 0.03 0.03 91 1015.6
20260505151739 54 347 0.0 0.0 0.01 0.03 0.03 92 1015.6
20260505151241 53 344 0.0 0.0 0.01 0.03 0.03 92 1015.2
20260505150734 53 347 0.0 0.0 0.01 0.03 0.03 92 1015.6
20260505150240 52 31 4.0 0.0 0.01 0.03 0.03 92 1015.6
20260505140236 52 135 0.0 0.0 0.00 0.02 0.02 92 1014.9
20260505130240 52 339 0.0 0.0 0.00 0.02 0.02 91 1014.9
20260505124741 52 339 0.0 0.0 0.00 0.02 0.02 90 1014.6
20260505124236 52 315 0.0 0.0 0.00 0.02 0.02 90 1014.6
20260505123729 52 303 0.0 0.0 0.00 0.02 0.02 90 1014.6
20260505123229 52 342 0.0 0.0 0.00 0.02 0.02 91 1014.6
20260505122728 52 248 0.0 0.0 0.00 0.02 0.02 90 1014.6
20260505122242 52 279 0.0 0.0 0.00 0.02 0.02 91 1014.6
20260505121730 52 263 0.0 0.0 0.00 0.02 0.02 91 1014.6
20260505121227 52 210 0.0 0.0 0.00 0.02 0.02 91 1014.6
20260505120726 52 217 0.0 0.0 0.00 0.02 0.02 91 1014.6
20260505120226 52 241 0.0 0.0 0.00 0.02 0.02 91 1014.6
20260505115729 52 221 0.0 0.0 0.00 0.02 0.02 91 1014.6
20260505115226 52 149 0.0 0.0 0.00 0.02 0.02 91 1014.6
20260505114726 52 185 0.0 0.0 0.00 0.02 0.02 91 1014.6
20260505114227 52 275 0.0 0.0 0.00 0.02 0.02 90 1014.6
20260505113727 52 270 0.0 0.0 0.00 0.02 0.02 90 1014.6
20260505113225 51 208 0.0 0.0 0.00 0.02 0.02 90 1014.9
20260505112726 51 287 0.0 0.0 0.00 0.02 0.02 90 1014.6
20260505112226 51 280 0.0 0.0 0.00 0.02 0.02 90 1014.6
20260505111728 51 292 0.0 0.0 0.00 0.02 0.02 90 1014.9
20260505111225 51 292 0.0 0.0 0.00 0.02 0.02 90 1014.9
20260505110726 51 277 0.0 0.0 0.00 0.02 0.02 90 1014.9
20260505110224 51 291 0.0 0.0 0.00 0.02 0.02 90 1014.9
20260505101725 51 251 0.0 0.0 0.01 0.02 0.02 90 1014.9
20260505101240 51 255 0.0 0.0 0.01 0.02 0.02 89 1014.9
20260505100727 51 243 0.0 0.0 0.01 0.02 0.02 89 1014.9
20260505100226 51 216 0.0 0.0 0.01 0.02 0.02 89 1014.9
20260505095739 51 250 0.0 0.0 0.01 0.02 0.02 89 1014.9
20260505095236 51 168 0.0 0.0 0.01 0.02 0.02 89 1014.9
20260505094723 51 191 0.0 0.0 0.00 0.01 0.01 89 1015.2
20260505094240 51 197 0.0 0.0 0.00 0.01 0.01 89 1015.2
20260505093738 51 154 0.0 0.0 0.00 0.01 0.01 89 1015.2
20260505093241 51 268 0.0 0.0 0.00 0.01 0.01 89 1015.2
20260505092742 51 272 0.0 0.0 0.00 0.01 0.01 89 1015.2
20260505092240 51 177 0.0 0.0 0.00 0.01 0.01 89 1015.2
20260505091736 51 156 0.0 0.0 0.00 0.01 0.01 89 1015.2
20260505091240 51 257 0.0 0.0 0.00 0.01 0.01 89 1015.6
20260505090723 51 164 0.0 0.0 0.00 0.01 0.01 89 1015.6
20260505090235 51 159 0.0 0.0 0.00 0.01 0.01 88 1015.6
20260505085737 51 145 0.0 0.0 0.00 0.01 0.01 88 1015.6
20260505085221 52 178 0.0 0.0 0.01 0.01 0.01 88 1015.6
20260505084737 52 97 0.0 0.0 0.01 0.01 0.01 88 1015.9
20260505084239 52 172 0.0 0.0 0.01 0.01 0.01 88 1015.9
20260505083745 52 294 0.0 0.0 0.01 0.01 0.01 87 1015.9
20260505083239 52 182 0.0 0.0 0.01 0.01 0.01 87 1016.3
20260505082721 52 166 0.0 0.0 0.01 0.01 0.01 87 1015.9
20260505082241 52 181 0.0 0.0 0.01 0.01 0.01 87 1015.9
20260505081739 52 289 0.0 0.0 0.01 0.01 0.01 87 1016.3
20260505081239 52 206 0.0 0.0 0.01 0.01 0.01 87 1016.3
20260505080739 52 285 0.0 0.0 0.01 0.01 0.01 87 1016.3
20260505080238 52 316 0.0 0.0 0.01 0.01 0.01 87 1016.3
20260505075738 53 123 0.0 0.0 0.01 0.01 0.01 87 1016.3
20260505075239 53 278 0.0 0.0 0.00 0.00 0.00 88 1016.3
20260505074741 53 44 0.0 0.0 0.00 0.00 0.00 88 1016.3
20260505074242 53 231 0.0 0.0 0.00 0.00 0.00 88 1016.3
20260505073736 53 211 0.0 0.0 0.00 0.00 0.00 87 1016.6
20260505073241 53 339 0.0 0.0 0.00 0.00 0.00 88 1016.6
20260505072737 53 192 0.0 0.0 0.00 0.00 0.00 88 1016.3
20260505072242 53 294 0.0 0.0 0.00 0.00 0.00 87 1016.3
20260505071739 53 314 0.0 0.0 0.00 0.00 0.00 87 1016.3
20260505071237 53 4 0.0 0.0 0.00 0.00 0.00 86 1016.3
20260505070738 53 294 3.0 0.0 0.00 0.00 0.00 86 1016.3
20260505070219 53 338 3.0 0.0 0.00 0.00 0.00 86 1016.3
20260505065737 53 326 4.0 0.0 0.00 0.00 0.00 85 1016.3
20260505065243 53 311 4.0 0.0 0.00 0.00 0.00 83 1016.3
20260505064739 54 319 3.0 0.0 0.00 0.00 0.00 83 1016.3
20260505064238 54 307 0.0 0.0 0.00 0.00 0.00 82 1016.6
20260505063738 54 320 5.0 0.0 0.00 0.00 0.00 82 1016.6
20260505063240 54 112 5.0 0.0 0.00 0.00 0.00 81 1016.6
20260505062741 54 131 5.0 0.0 0.00 0.00 0.00 80 1016.3
20260505062238 55 6 7.0 0.0 0.00 0.00 0.00 79 1016.3
20260505061737 55 105 4.0 0.0 0.00 0.00 0.00 78 1016.3
20260505061219 55 176 2.0 0.0 0.00 0.00 0.00 76 1016.6
20260505060737 55 279 8.0 0.0 0.00 0.00 0.00 76 1016.6
20260505060238 56 14 7.0 0.0 0.00 0.00 0.00 75 1016.6
20260505055736 55 127 0.0 0.0 0.00 0.00 0.00 75 1016.6
20260505055237 56 312 0.0 0.0 0.00 0.00 0.00 75 1016.6
20260505054740 55 271 1.0 0.0 0.00 0.00 0.00 76 1016.6
20260505054243 56 206 1.0 0.0 0.00 0.00 0.00 76 1016.6
20260505053735 56 328 0.0 0.0 0.00 0.00 0.00 76 1016.6
20260505053236 56 321 4.0 0.0 0.00 0.00 0.00 76 1016.6
20260505052735 56 302 4.0 0.0 0.00 0.00 0.00 75 1016.6
20260505052240 56 358 4.0 0.0 0.00 0.00 0.00 74 1016.6
20260505051719 56 340 0.0 0.0 0.00 0.00 0.00 72 1016.6
20260505051319 56 350 0.0 0.0 0.00 0.00 0.00 71 1016.6
20260505050741 57 294 5.0 0.0 0.00 0.00 0.00 70 1016.6
20260505050240 57 334 5.0 0.0 0.00 0.00 0.00 69 1016.6
20260505041735 58 69 7.0 0.0 0.00 0.00 0.00 66 1016.3
20260505041235 58 28 6.0 0.0 0.00 0.00 0.00 66 1016.3
20260505040719 58 15 6.0 0.0 0.00 0.00 0.00 66 1016.3
20260505040245 58 333 6.0 0.0 0.00 0.00 0.00 65 1016.3
20260505035742 58 18 6.0 0.0 0.00 0.00 0.00 65 1016.3
20260505035237 59 225 4.0 0.0 0.00 0.00 0.00 64 1016.3
20260505034742 59 115 0.0 0.0 0.00 0.00 0.00 64 1016.3
20260505034242 59 329 0.0 0.0 0.00 0.00 0.00 63 1015.9
20260505033715 59 228 0.0 0.0 0.00 0.00 0.00 63 1015.9
20260505033217 59 31 0.0 0.0 0.00 0.00 0.00 63 1015.9
20260505032738 59 12 6.0 0.0 0.00 0.00 0.00 62 1015.9
20260505032214 59 140 6.0 0.0 0.00 0.00 0.00 62 1015.9
20260505031715 59 96 8.0 0.0 0.00 0.00 0.00 62 1015.9
20260505031240 59 97 0.0 0.0 0.00 0.00 0.00 62 1015.6
20260505030814 59 308 0.0 0.0 0.00 0.00 0.00 62 1015.6
20260505030515 59 206 0.0 0.0 0.00 0.00 0.00 62 1015.6
20260505025714 59 85 0.0 0.0 0.00 0.00 0.00 62 1015.6
20260505025237 59 197 0.0 0.0 0.00 0.00 0.00 61 1015.6
20260505024740 59 314 2.0 0.0 0.00 0.00 0.00 61 1015.2
20260505024213 60 344 4.0 0.0 0.00 0.00 0.00 60 1015.2
20260505023714 60 2 8.0 0.0 0.00 0.00 0.00 60 1015.2
20260505023241 60 335 9.0 0.0 0.00 0.00 0.00 59 1015.2
20260505022742 60 336 8.0 0.0 0.00 0.00 0.00 59 1015.2
20260505022238 60 291 7.0 0.0 0.00 0.00 0.00 58 1015.2
20260505021742 61 234 7.0 0.0 0.00 0.00 0.00 57 1015.2
20260505021245 61 242 7.0 0.0 0.00 0.00 0.00 57 1015.2
20260505020743 61 275 7.0 0.0 0.00 0.00 0.00 57 1015.2
20260505020241 61 325 8.0 0.0 0.00 0.00 0.00 56 1015.2
20260505015743 61 302 5.0 0.0 0.00 0.00 0.00 56 1015.2
20260505015241 62 62 7.0 0.0 0.00 0.00 0.00 55 1015.2
20260505014736 62 36 7.0 0.0 0.00 0.00 0.00 55 1015.2
20260505014238 62 314 6.0 0.0 0.00 0.00 0.00 55 1015.2
20260505013738 62 5 7.0 0.0 0.00 0.00 0.00 55 1015.2
20260505013514 62 332 15.0 0.0 0.00 0.00 0.00 55 1015.2
20260505012740 63 286 10.0 0.0 0.00 0.00 0.00 54 1015.2
20260505012238 63 325 8.0 0.0 0.00 0.00 0.00 53 1015.2
20260505011738 63 316 9.0 0.0 0.00 0.00 0.00 53 1015.2
20260505011241 63 328 9.0 0.0 0.00 0.00 0.00 53 1015.2
20260505010711 63 319 14.0 0.0 0.00 0.00 0.00 52 1015.2
20260505010240 64 249 14.0 0.0 0.00 0.00 0.00 51 1015.2
20260505005743 64 306 7.0 0.0 0.00 0.00 0.00 50 1015.2
20260505005240 64 246 8.0 0.0 0.00 0.00 0.00 49 1015.2
20260505004736 65 264 9.0 0.0 0.00 0.00 0.00 48 1015.2
20260505004213 65 289 8.0 0.0 0.00 0.00 0.00 47 1015.2
20260505003740 66 8 6.0 0.0 0.00 0.00 0.00 46 1015.2
20260505003237 66 312 13.0 0.0 0.00 0.00 0.00 44 1015.2
20260505002738 66 297 13.0 0.0 0.00 0.00 0.00 43 1015.2
20260505002242 66 303 10.0 0.0 0.00 0.00 0.00 43 1015.2
20260505001713 66 325 6.0 0.0 0.00 0.00 0.00 43 1015.2
20260505001242 66 266 8.0 0.0 0.00 0.00 0.00 42 1015.2
20260505000740 66 299 7.0 0.0 0.00 0.00 0.00 42 1015.2
20260505000239 66 298 10.0 0.0 0.00 0.00 0.00 42 1015.2
20260504235739 66 354 10.0 0.0 0.00 0.00 0.00 41 1015.2
20260504235241 67 293 8.0 0.0 0.00 0.00 0.00 40 1015.2
20260504234742 67 306 6.0 0.0 0.00 0.00 0.00 40 1015.2
20260504234238 68 350 12.0 0.0 0.00 0.00 0.00 38 1015.2
20260504233738 68 337 8.0 0.0 0.00 0.00 0.00 38 1015.2
20260504233215 68 262 1.0 0.0 0.00 0.00 0.00 38 1015.2
20260504232742 67 134 5.0 0.0 0.00 0.00 0.00 39 1015.2
20260504232240 68 314 5.0 0.0 0.00 0.00 0.00 40 1015.2
20260504231738 67 70 6.0 0.0 0.00 0.00 0.00 40 1015.2
20260504231244 67 303 7.0 0.0 0.00 0.00 0.00 40 1015.2
20260504230741 67 297 7.0 0.0 0.00 0.00 0.00 40 1015.2
20260504230211 66 256 7.0 0.0 0.00 0.00 0.00 42 1015.2
20260504225717 66 323 7.0 0.0 0.00 0.00 0.00 42 1015.2
20260504225242 66 173 5.0 0.0 0.00 0.00 0.00 42 1015.2
20260504224740 66 0 8.0 0.0 0.00 0.00 0.00 43 1015.6
20260504224237 66 333 11.0 0.0 0.00 0.00 0.00 42 1015.6
20260504223739 67 349 8.0 0.0 0.00 0.00 0.00 41 1015.6
20260504223239 67 13 8.0 0.0 0.00 0.00 0.00 43 1015.9
20260504222715 66 249 7.0 0.0 0.00 0.00 0.00 44 1015.9
20260504222213 66 340 7.0 0.0 0.00 0.00 0.00 44 1016.3
20260504221741 65 291 10.0 0.0 0.00 0.00 0.00 44 1016.3
20260504221243 65 350 10.0 0.0 0.00 0.00 0.00 44 1016.3
20260504220710 66 315 8.0 0.0 0.00 0.00 0.00 44 1016.3
20260504220215 66 319 7.0 0.0 0.00 0.00 0.00 43 1016.3
20260504215736 66 322 10.0 0.0 0.00 0.00 0.00 43 1016.3
20260504215241 67 32 5.0 0.0 0.00 0.00 0.00 43 1016.3
20260504214738 67 231 5.0 0.0 0.00 0.00 0.00 43 1016.3
20260504214238 66 343 9.0 0.0 0.00 0.00 0.00 44 1016.3
20260504213714 66 271 9.0 0.0 0.00 0.00 0.00 44 1016.6
20260504213236 65 293 9.0 0.0 0.00 0.00 0.00 46 1016.6
20260504212739 65 327 9.0 0.0 0.00 0.00 0.00 46 1016.6
20260504212214 66 313 10.0 0.0 0.00 0.00 0.00 45 1016.9
20260504211741 67 339 9.0 0.0 0.00 0.00 0.00 44 1016.9
20260504211213 66 123 7.0 0.0 0.00 0.00 0.00 44 1016.6
20260504210736 66 138 6.0 0.0 0.00 0.00 0.00 45 1016.6
20260504210242 65 132 6.0 0.0 0.00 0.00 0.00 46 1016.6
20260504205741 66 30 6.0 0.0 0.00 0.00 0.00 45 1016.6
20260504205238 66 359 3.0 0.0 0.00 0.00 0.00 46 1016.9
20260504204738 65 65 3.0 0.0 0.00 0.00 0.00 47 1016.6
20260504204242 65 322 4.0 0.0 0.00 0.00 0.00 47 1016.9
20260504203740 65 19 5.0 0.0 0.00 0.00 0.00 47 1016.9
20260504203215 65 293 6.0 0.0 0.00 0.00 0.00 47 1016.9
20260504202741 66 52 6.0 0.0 0.00 0.00 0.00 47 1016.9
20260504202240 65 354 10.0 0.0 0.00 0.00 0.00 46 1016.9
20260504201714 65 90 7.0 0.0 0.00 0.00 0.00 46 1016.9
20260504201243 64 328 7.0 0.0 0.00 0.00 0.00 47 1016.9
20260504200742 64 287 0.0 0.0 0.00 0.00 0.00 49 1016.9
20260504200236 64 333 0.0 0.0 0.00 0.00 0.00 49 1016.9
20260504195710 64 52 0.0 0.0 0.00 0.00 0.00 48 1017.3
20260504195213 64 124 0.0 0.0 0.00 0.00 0.00 48 1017.3
20260504194740 65 336 0.0 0.0 0.00 0.00 0.00 48 1017.3
20260504194243 64 54 5.0 0.0 0.00 0.00 0.00 48 1017.3
20260504193711 64 323 5.0 0.0 0.00 0.00 0.00 49 1017.3
20260504193211 63 307 7.0 0.0 0.00 0.00 0.00 50 1017.3
20260504192740 63 316 8.0 0.0 0.00 0.00 0.00 51 1017.3
20260504192214 63 303 0.0 0.0 0.00 0.00 0.00 52 1017.3